Simultaneous Nadir Overpasses (SNOs) Predictions

Prediction of SNOs between GOES-17 and TERRA Satellite Orbit:

Table of predicted SNOs for the next 14.0 days since TLE Epoch: 10/5/2024
Index Date Time (GOES-17) GOES-17 Lat,Lon TERRA Lat,Lon Distance(km) Time Diff (sec)
1 10/06/2024 16:33:47 0.02,-104.73 -0.34,-103.14 182.04 80
2 10/07/2024 04:53:43 -0.02,-104.69 -0.68,-107.99 374.47 80
3 10/09/2024 04:33:07 -0.02,-104.68 0.20,-103.66 116.25 80
4 10/09/2024 16:52:54 0.02,-104.73 0.78,-108.47 425.30 80
5 10/11/2024 16:37:36 0.03,-104.72 -0.10,-104.14 66.22 80
6 10/12/2024 04:57:31 -0.03,-104.67 -0.90,-108.98 489.27 80
7 10/14/2024 04:36:51 -0.03,-104.67 -0.01,-104.64 3.55 80
8 10/16/2024 04:18:50 -0.02,-104.66 0.93,-100.30 496.45 80
9 10/16/2024 16:38:35 0.01,-104.71 0.10,-105.10 44.85 80
10 10/18/2024 16:23:12 0.01,-104.71 -0.83,-100.75 449.43 80
